Weather History for Rifle, CO

Change the Weather History Date:

Wednesday, July 2, 2014

  Actual Average Record
Temperature  
Mean Temperature 70 °F 71 °F  
Max Temperature 92 °F 90 °F 100 °F (1929)
Min Temperature 47 °F 52 °F 36 °F (1959)
Degree Days  
Heating Degree Days 0 0  
Month to date heating degree days 0 0  
Since 1 June heating degree days 40 59  
Since 1 July heating degree days 0 0  
Cooling Degree Days 5 6  
Month to date cooling degree days 9 12  
Year to date cooling degree days 105 114  
Since 1 June cooling degree days 91 107  
Growing Degree Days 20 (Base 50)    
Moisture  
Dew Point 27 °F    
Average Humidity 31    
Maximum Humidity 54    
Minimum Humidity 7    
Precipitation  
Precipitation 0.00 in 0.02 in 0.73 in (1932)
Month to date precipitation 0.00 0.04  
Year to date precipitation 4.60 6.48  
Sea Level Pressure  
Sea Level Pressure 29.94 in    
Wind  
Wind Speed 4 mph (SE)    
Max Wind Speed 15 mph    
Max Gust Speed 20 mph    
Visibility 10 miles    
Events      
T = Trace of Precipitation, MM = Missing Value Source: NWS Daily Summary

Daily Weather History Graph

Daily Weather History Graph

Search for Another Location

Airport:

Trip Planner

Search our weather history database for the weather conditions in past years. The results will help you decide how hot, cold, wet, or windy it might be!

Date:

Astronomy

Jul. 02, 2014 Rise Set
Actual Time 5:47 AM MDT 8:41 PM MDT
Civil Twilight 5:15 AM MDT 9:14 PM MDT
Nautical Twilight 4:34 AM MDT 9:54 PM MDT
Astronomical Twilight 3:47 AM MDT 10:41 PM MDT
Moon 10:52 AM MDT (7/2) 11:37 PM MDT (7/2)
Length of Visible Light 15h 58m
Length of Day
14h 54m
Waxing Crescent, 25% of the Moon is Illuminated
Jul 2
Waxing Crescent
Jul 5
First Quarter
Jul 12
Full
Jul 18
Last Quarter
Jul 26
New

Hourly Weather History & Observations

Time (MDT) Temp. Dew Point Humidity Pressure Visibility Wind Dir Wind Speed Gust Speed Precip Events Conditions
12:53 AM 57.9 °F 28.0 °F 32% 29.96 in 10.0 mi Calm Calm - N/A   Clear
1:53 AM 55.0 °F 25.0 °F 31% 29.97 in 10.0 mi South 3.5 mph - N/A   Clear
2:53 AM 53.1 °F 25.0 °F 34% 29.97 in 10.0 mi East 5.8 mph - N/A   Clear
3:53 AM 52.0 °F 26.1 °F 37% 29.98 in 10.0 mi SE 4.6 mph - N/A   Clear
4:53 AM 51.1 °F 27.0 °F 39% 29.99 in 10.0 mi SE 3.5 mph - N/A   Clear
5:53 AM 48.9 °F 32.0 °F 52% 30.01 in 10.0 mi North 3.5 mph - N/A   Clear
6:53 AM 53.1 °F 27.0 °F 37% 30.03 in 10.0 mi Calm Calm - N/A   Clear
7:53 AM 55.9 °F 32.0 °F 40% 30.03 in 10.0 mi Calm Calm - N/A   Clear
8:53 AM 66.0 °F 33.1 °F 29% 30.03 in 10.0 mi North 6.9 mph - N/A   Clear
9:53 AM 69.1 °F 35.1 °F 29% 30.01 in 10.0 mi NW 3.5 mph - N/A   Clear
10:53 AM 75.9 °F 33.1 °F 21% 29.99 in 10.0 mi Calm Calm - N/A   Clear
11:53 AM 79.0 °F 33.1 °F 19% 29.98 in 10.0 mi North 3.5 mph - N/A   Clear
12:53 PM 84.0 °F 12.0 °F 7% 29.95 in 10.0 mi Variable 3.5 mph - N/A   Clear
1:53 PM 88.0 °F 23.0 °F 9% 29.92 in 10.0 mi West 8.1 mph - N/A   Clear
3:53 PM 90.0 °F 21.9 °F 8% 29.89 in 10.0 mi Calm Calm - N/A   Clear
4:53 PM 90.0 °F 21.9 °F 8% 29.88 in 10.0 mi West 4.6 mph - N/A   Clear
5:53 PM 91.0 °F 21.9 °F 8% 29.86 in 10.0 mi Variable 4.6 mph - N/A   Clear
6:53 PM 90.0 °F 23.0 °F 9% 29.84 in 10.0 mi Calm Calm - N/A   Clear
7:53 PM 87.1 °F 28.9 °F 12% 29.84 in 10.0 mi NNW 5.8 mph - N/A   Clear
8:53 PM 82.0 °F 28.9 °F 14% 29.85 in 10.0 mi South 3.5 mph - N/A   Clear
9:53 PM 72.0 °F 28.0 °F 20% 29.90 in 10.0 mi South 4.6 mph - N/A   Clear
10:53 PM 69.1 °F 33.1 °F 26% 29.91 in 10.0 mi East 5.8 mph - N/A   Clear
11:53 PM 66.0 °F 30.0 °F 26% 29.92 in 10.0 mi South 6.9 mph - N/A   Clear